Wind_Speed
23 28 32 33 35 33 33 34 36 35 32 33 37 38 36 34 37 34 35 33 31 26 25 28 27 17 13
27 29 30 30 32 34 32 35 33 34 35 33 35 34 32 33 32 31 30 31 29 24 28 27 20 17 16
29 28 29 29 34 31 34 33 31 32 34 34 33 32 30 29 26 19 10 11 17 20 31 21 20 17 17
26 29 28 30 30 34 37 29 33 34 33 32 32 30 32 22 21 16 14 15 18 14 11 14 14 20 20
26 29 29 30 29 35 27 36 30 31 35 29 30 30 24 18 12 10 13 7 16 26 16 12 18 19 18
27 27 31 29 29 27 27 27 19 23 30 26 15 14 10 5 4 6 7 11 5 8 16 17 20 18 16
31 30 34 31 33 30 25 26 26 31 22 12 12 12 11 5 4 6 17 14 16 15 18 16 16 16 17
27 34 35 39 36 28 29 28 29 27 17 5 7 13 20 17 18 18 15 9 11 13 19 20 19 17 17
31 36 38 36 31 30 24 18 14 10 10 2 1 12 21 20 17 12 12 12 18 20 19 18 18 19 17
34 36 33 33 31 27 22 17 13 8 6 3 7 1 4 10 13 14 13 14 17 18 18 18 19 19 17
30 30 32 31 28 21 17 14 15 11 12 6 6 3 5 4 9 10 12 14 18 19 16 16 14 16 20
29 27 28 27 25 18 16 14 14 16 16 12 5 6 7 3 3 8 10 11 21 20 16 14 13 16 15
25 27 27 27 19 17 15 14 13 10 8 11 7 10 11 10 9 9 13 13 17 18 16 15 14 13 12
26 29 29 22 16 12 13 11 10 7 5 6 6 7 11 7 18 17 16 7 17 16 17 15 12 9 6
26 25 24 20 14 11 10 8 6 6 4 1 5 7 7 12 13 19 15 17 18 18 19 17 11 7 6
28 25 22 16 12 9 7 5 5 5 2 7 12 12 10 7 5 20 16 21 18 16 15 14 10 8 8
26 23 16 12 8 7 5 3 4 2 4 8 4 4 2 2 4 14 19 21 20 16 13 11 8 9 8
Wind_Direction
307 312 313 314 315 315 313 310 311 313 308 306 308 305 303 302 301 295 289 270 271 270 273 271 210 165 176
312 316 317 319 315 313 312 308 310 314 314 307 306 304 306 305 304 296 288 275 263 265 273 273 177 161 164
308 316 315 321 317 314 312 312 315 315 309 308 308 304 305 302 312 291 310 284 275 280 273 194 173 164 142
311 313 315 320 317 320 317 315 318 319 314 317 311 310 309 294 304 288 302 294 277 233 127 148 154 136 123
308 309 310 316 318 320 312 314 318 321 315 321 310 316 315 297 273 288 305 292 138 138 145 147 137 119 114
304 303 304 305 308 313 311 315 314 322 320 308 319 340 38 67 329 276 130 110 76 136 147 140 130 125 114
298 296 300 304 304 305 306 306 300 307 321 299 333 328 318 317 295 189 141 131 136 146 141 136 131 124 123
295 297 299 299 295 295 300 301 301 307 291 290 23 48 67 75 112 121 110 99 136 135 133 124 119 122 119
301 304 303 305 293 298 293 294 302 287 292 247 63 57 76 77 79 90 103 117 122 125 118 120 123 121 113
308 307 306 305 300 295 290 288 289 288 255 219 164 76 54 61 91 101 102 118 119 117 119 128 131 123 121
310 309 306 301 298 289 284 286 292 270 293 225 207 116 85 111 93 114 128 123 122 120 120 134 135 142 130
306 308 306 296 295 287 285 288 284 283 287 231 226 184 136 102 115 121 127 135 135 124 124 119 125 142 138
300 307 306 302 286 288 290 287 287 288 283 228 248 206 174 160 149 147 136 126 130 128 131 131 136 139 124
299 303 308 289 286 289 293 297 294 283 282 257 253 235 186 181 167 159 153 142 146 143 143 137 139 146 135
301 302 294 289 287 292 286 293 288 311 322 155 183 196 190 170 159 171 160 152 154 148 144 132 130 131 125
303 300 287 284 286 284 283 284 296 298 237 161 145 131 118 91 171 170 160 158 160 160 153 135 121 121 125
301 301 287 282 279 287 272 310 314 268 206 186 197 151 92 100 75 194 165 165 160 153 156 154 148 143 137
Height
834 829 823 818 812 806 801 795 788 784 779 772 767 762 758 756 751 748 746 745 745 747 747 749 741 742 751
827 823 818 813 807 801 795 789 782 777 771 766 760 754 752 747 744 740 737 738 739 739 740 739 738 742 746
820 819 815 810 802 796 789 783 778 773 767 759 755 748 744 740 737 735 733 732 733 734 732 734 738 741 745
820 814 809 806 803 793 779 779 773 769 762 754 749 743 739 735 732 732 732 730 729 731 734 737 739 741 747
816 810 805 798 797 791 782 773 769 767 758 751 744 738 730 730 729 730 730 729 728 729 736 740 742 744 749
817 810 801 798 793 787 782 776 763 762 755 748 743 736 730 727 730 731 731 730 734 735 738 742 745 749 753
812 808 799 794 788 781 778 773 768 759 756 747 742 737 732 730 731 731 732 734 737 740 742 745 749 753 757
809 801 796 790 787 780 774 769 764 758 755 749 743 740 734 732 734 735 736 739 742 743 746 749 753 758 762
805 798 790 784 780 776 771 767 760 757 752 749 746 744 738 739 742 742 742 743 746 747 750 755 758 762 766
795 789 784 779 775 771 767 765 760 756 750 749 747 746 746 748 748 747 748 749 751 753 756 759 763 766 770
788 783 776 770 768 766 763 761 758 755 751 749 747 747 748 751 752 753 753 753 755 758 761 764 768 770 773
785 778 772 766 764 762 760 756 755 752 749 748 747 747 748 753 755 756 757 758 758 761 765 768 771 774 777
781 775 769 764 761 760 756 754 752 750 747 746 747 747 749 750 753 757 759 761 762 764 768 772 774 776 779
776 770 764 762 759 757 754 752 750 748 747 746 747 747 749 751 752 756 759 762 765 767 770 774 777 780 782
771 766 762 759 757 755 753 751 750 748 747 747 747 748 750 751 754 757 760 763 766 769 772 775 779 782 783
766 761 758 756 755 754 753 751 750 749 748 749 749 749 751 754 756 757 761 764 768 771 773 777 781 783 785
762 757 755 754 754 752 752 750 750 749 749 750 750 750 752 756 758 759 760 765 769 772 775 778 781 784 786